Weather past 2 weeks in Saipan, Northern Mariana Islands

Now
82 °F

Scattered clouds.


Feels Like: 91 °F
Forecast: 78 / 82 °F
Wind: 14 mph from South

Location: Saipan International Airport

Current Time: Oct 2, 2014 at 8:44:48 AM

Latest Report: Oct 2, 2014 at 7:54 AM


Visibility: 10 mi

Pressure: 29.75 "Hg

Humidity: 88%

Dew point: 78 °F

Location of SaipanLocation

Historic Weather in Saipan — Graph

°F

Saipan temperature yesterday

Maximum temperature yesterday: 85 °F (at 11:54 AM)
Minimum temperature yesterday: 77 °F (at 1:54 AM)
Average temperature yesterday: 82 °F

Past Weeks' High & Low Weather Summary

 TemperatureHumidityPressure
High88 °F (Sep 18, 10:54 AM)100% (Sep 23, 3:00 PM)30.02 "Hg (Sep 23, 3:00 PM)
Low76 °F (Sep 18, 1:54 AM)65% (Sep 18, 10:54 AM)29.51 "Hg (Sep 30, 3:01 PM)
Average82 °F87%29.77 "Hg
* Reported Sep 17 7:54 AM — Oct 2 7:54 AM, Saipan, Weather by CustomWeather, © 2014

Note: Actual official high and low records may vary slightly from our data, if they occured in-between our weather recording intervals... More about our weather records

Advertising

Saipan weather history for previous 24 hours

 ConditionsComfort  
Time TempWeatherWind HumidityBarometerVisibility
7:54 AM
Oct 2
82 °FScattered clouds.14 mph88%29.75 "Hg10 mi
6:54 AM81 °FLight rain. Broken clouds.12 mph91%29.74 "Hg10 mi
5:54 AM80 °FLight rain. Passing clouds.12 mph90%29.71 "Hg10 mi
4:54 AM80 °FLight rain. Partly cloudy.14 mph90%29.70 "Hg10 mi
3:54 AM82 °FPartly cloudy.12 mph88%29.69 "Hg10 mi
3:35 AM81 °FPartly cloudy.10 mph94%29.63 "Hg10 mi
2:54 AM81 °FPartly cloudy.13 mph88%29.69 "Hg10 mi
1:54 AM82 °FPartly cloudy.16 mph88%29.68 "Hg10 mi
12:54 AM82 °FPartly cloudy.17 mph88%29.68 "Hg10 mi
12:01 AM82 °FPartly cloudy.12 mph89%29.63 "Hg10 mi
11:54 PM
Oct 1
83 °FOvercast.13 mph82%29.69 "Hg10 mi
10:54 PM82 °FPassing clouds.10 mph88%29.69 "Hg10 mi
9:54 PM82 °FClear.16 mph88%29.69 "Hg10 mi
8:54 PM82 °FPassing clouds.17 mph88%29.69 "Hg10 mi
7:54 PM83 °FPassing clouds.14 mph82%29.67 "Hg10 mi
7:22 PM82 °FPartly cloudy.16 mph84%29.61 "Hg10 mi
6:54 PM83 °FPartly cloudy.15 mph85%29.66 "Hg10 mi
5:54 PM83 °FLight rain. Broken clouds.13 mph85%29.65 "Hg10 mi
4:54 PM84 °FBroken clouds.16 mph80%29.62 "Hg10 mi
3:54 PM82 °FBroken clouds.20 mph82%29.60 "Hg10 mi
2:54 PM84 °FScattered clouds.18 mph80%29.59 "Hg10 mi
1:54 PM84 °FPassing clouds.13 mph80%29.60 "Hg10 mi
1:33 PM82 °FLight rain. Partly sunny.14 mph74%29.54 "Hg10 mi
12:54 PM85 °FPassing clouds.18 mph77%29.61 "Hg10 mi
11:54 AM85 °FMore clouds than sun.22 mph80%29.62 "Hg10 mi
10:54 AM84 °FScattered clouds.18 mph83%29.64 "Hg10 mi
9:54 AM83 °FScattered clouds.22 mph85%29.64 "Hg10 mi
8:54 AM83 °FScattered clouds.21 mph85%29.63 "Hg10 mi
Weather by CustomWeather, © 2014

See weather overviewHow to use our weather pages